FW9116 Weather Reports


Display with metric or nautical units.
time (UTC)temp
F
wind
direction
speed
MPH
gust
MPH
rain 1hr
in
rain 24hr
in
rain mn
in
humidity
%
barometer
mb
20260903193101 60 173 2.0 8.0 0.01 0.44 0.18 83 1009.5
20260903192555 60 213 2.0 7.0 0.01 0.44 0.18 83 1009.6
20260903192056 60 167 1.0 11.0 0.02 0.44 0.18 84 1009.6
20260903191604 59 162 1.0 11.0 0.02 0.44 0.18 84 1009.7
20260903191056 59 186 3.0 10.0 0.02 0.44 0.18 85 1009.7
20260903190556 58 161 3.0 12.0 0.02 0.44 0.18 85 1009.8
20260903185557 58 196 4.0 15.0 0.02 0.50 0.18 86 1009.8
20260903185055 58 217 5.0 15.0 0.02 0.50 0.18 86 1009.8
20260903184603 58 194 4.0 15.0 0.02 0.50 0.18 86 1009.7
20260903184057 58 180 4.0 15.0 0.02 0.50 0.18 84 1009.9
20260903183555 59 186 2.0 9.0 0.01 0.49 0.17 84 1009.7
20260903183102 59 0 3.0 9.0 0.01 0.49 0.17 83 1009.7
20260903182557 59 156 2.0 12.0 0.01 0.49 0.17 82 1009.8
20260903182056 60 250 4.0 16.0 0.00 0.48 0.16 81 1009.8
20260903181600 60 302 3.0 16.0 0.00 0.48 0.16 79 1009.8
20260903181055 61 185 3.0 14.0 0.00 0.48 0.16 80 1009.7
20260903180558 61 236 3.0 10.0 0.00 0.48 0.16 80 1009.6
20260903175556 61 189 0.0 8.0 0.00 0.55 0.16 84 1009.5
20260903175055 61 0 2.0 8.0 0.00 0.55 0.16 84 1009.5
20260903174557 61 186 2.0 5.0 0.00 0.55 0.16 84 1009.5
20260903174055 60 190 0.0 5.0 0.00 0.55 0.16 85 1009.4
20260903173555 60 126 0.0 6.0 0.00 0.55 0.16 86 1009.5
20260903173107 60 0 2.0 7.0 0.00 0.55 0.16 86 1009.5
20260903172556 60 163 2.0 8.0 0.00 0.55 0.16 87 1009.4
20260903172053 59 166 3.0 8.0 0.00 0.55 0.16 88 1009.5
20260903171613 59 0 2.0 7.0 0.00 0.55 0.16 90 1009.5
20260903171055 58 105 0.0 5.0 0.00 0.55 0.16 92 1009.5
20260903170555 58 0 1.0 5.0 0.00 0.55 0.16 92 1009.6
20260903165555 57 160 1.0 5.0 0.00 0.55 0.16 93 1009.7
20260903165058 57 0 0.0 3.0 0.00 0.55 0.16 93 1009.8
20260903164559 57 171 0.0 3.0 0.00 0.55 0.16 94 1009.9
20260903164056 57 200 0.0 4.0 0.00 0.55 0.16 94 1009.9
20260903163558 57 0 1.0 4.0 0.00 0.55 0.16 94 1009.9
20260903163107 57 0 0.0 3.0 0.01 0.55 0.16 95 1009.8
20260903162556 57 86 1.0 3.0 0.01 0.55 0.16 95 1009.8
20260903162056 56 141 0.0 3.0 0.01 0.55 0.16 95 1009.8
20260903161605 56 0 0.0 2.0 0.02 0.55 0.16 95 1009.7
20260903161056 55 0 0.0 2.0 0.02 0.55 0.16 95 1009.8
20260903160555 55 0 0.0 2.0 0.02 0.55 0.16 94 1009.9
20260903160110 55 0 0.0 2.0 0.03 0.55 0.16 94 1009.8
20260903155553 55 0 0.0 2.0 0.03 0.55 0.16 94 1009.9
20260903155054 55 0 0.0 1.0 0.03 0.55 0.16 94 1009.9
20260903154603 55 0 0.0 1.0 0.04 0.55 0.16 94 1009.8
20260903154054 55 0 0.0 1.0 0.04 0.55 0.16 94 1009.9
20260903153553 55 0 0.0 3.0 0.04 0.55 0.16 94 1010.0
20260903153109 54 0 0.0 5.0 0.04 0.54 0.15 94 1009.8
20260903152553 54 0 1.0 5.0 0.05 0.54 0.15 94 1009.8
20260903152054 54 0 1.0 6.0 0.05 0.54 0.15 93 1009.9
20260903151610 54 0 1.0 6.0 0.04 0.52 0.14 93 1009.9
20260903151053 54 145 2.0 7.0 0.05 0.52 0.14 93 1009.7
20260903150556 54 192 1.0 7.0 0.05 0.52 0.14 93 1009.7
20260903150109 54 160 1.0 5.0 0.05 0.52 0.13 93 1009.8
20260903145556 54 197 2.0 9.0 0.05 0.52 0.13 93 1009.7
20260903145054 54 0 1.0 9.0 0.05 0.52 0.13 93 1009.6
20260903144601 54 141 4.0 9.0 0.04 0.51 0.12 93 1009.7
20260903144055 54 209 2.0 7.0 0.05 0.51 0.12 93 1009.6
20260903143553 54 101 2.0 6.0 0.05 0.51 0.12 93 1009.6
20260903143100 54 202 1.0 6.0 0.04 0.50 0.11 93 1009.6
20260903142554 54 0 1.0 8.0 0.05 0.49 0.10 93 1009.5
20260903142054 54 167 1.0 8.0 0.06 0.49 0.10 93 1009.5
20260903141601 54 0 2.0 8.0 0.06 0.49 0.10 93 1009.5
20260903141056 54 0 1.0 6.0 0.05 0.48 0.09 92 1009.4
20260903140553 54 140 1.0 5.0 0.05 0.48 0.09 92 1009.4
20260903140113 54 0 0.0 5.0 0.04 0.47 0.08 92 1009.4
20260903135554 54 168 1.0 5.0 0.05 0.47 0.08 92 1009.4
20260903135054 54 0 0.0 3.0 0.05 0.47 0.08 92 1009.3
20260903134603 54 146 0.0 3.0 0.05 0.47 0.08 92 1009.3
20260903134053 54 0 0.0 2.0 0.04 0.46 0.07 92 1009.2
20260903133553 54 0 0.0 2.0 0.04 0.46 0.07 92 1009.2
20260903133115 54 0 0.0 2.0 0.04 0.46 0.07 92 1009.1
20260903132554 54 192 0.0 4.0 0.02 0.44 0.05 92 1009.2
20260903132053 54 0 0.0 4.0 0.01 0.43 0.04 92 1009.2
20260903131610 54 116 1.0 6.0 0.01 0.43 0.04 92 1009.0
20260903131055 54 147 1.0 7.0 0.01 0.43 0.04 92 1008.9
20260903130553 54 146 1.0 8.0 0.01 0.43 0.04 92 1009.0
20260903125554 53 0 2.0 8.0 0.00 0.42 0.03 92 1009.1
20260903125055 53 146 1.0 5.0 0.00 0.42 0.03 93 1009.1
20260903124614 53 116 1.0 6.0 0.00 0.42 0.03 93 1009.1
20260903124053 53 169 1.0 6.0 0.00 0.42 0.03 93 1009.1
20260903123556 53 142 1.0 5.0 0.00 0.42 0.03 93 1009.0
20260903123102 53 0 1.0 4.0 0.00 0.42 0.03 93 1009.0
20260903122554 53 0 0.0 6.0 0.00 0.42 0.03 93 1009.1
20260903122054 53 159 1.0 6.0 0.00 0.42 0.03 93 1009.2
20260903121559 53 154 0.0 4.0 0.00 0.42 0.03 93 1009.1
20260903121053 53 150 0.0 3.0 0.00 0.42 0.03 93 1009.2
20260903120558 53 152 0.0 3.0 0.00 0.42 0.03 92 1009.2
20260903120106 53 132 0.0 3.0 0.00 0.42 0.03 92 1009.2
20260903115554 53 0 0.0 5.0 0.00 0.42 0.03 92 1009.3
20260903115054 53 116 0.0 5.0 0.00 0.42 0.03 92 1009.3
20260903114607 53 0 0.0 6.0 0.00 0.42 0.03 92 1009.2
20260903114053 53 152 0.0 6.0 0.00 0.42 0.03 93 1009.2
20260903113557 53 138 1.0 6.0 0.00 0.42 0.03 93 1009.2
20260903113105 54 150 2.0 6.0 0.00 0.42 0.03 93 1009.1
20260903112556 54 159 1.0 6.0 0.00 0.42 0.03 93 1009.2
20260903112054 54 203 2.0 6.0 0.00 0.42 0.03 93 1009.2
20260903111602 54 173 2.0 6.0 0.00 0.42 0.03 93 1009.3
20260903111055 54 186 0.0 6.0 0.00 0.42 0.03 93 1009.2
20260903110553 54 153 3.0 6.0 0.00 0.42 0.03 93 1009.2
20260903110100 54 179 0.0 7.0 0.00 0.42 0.03 93 1009.1
20260903105555 54 182 2.0 7.0 0.00 0.42 0.03 93 1009.1
20260903105057 54 0 2.0 6.0 0.00 0.42 0.03 93 1009.2
20260903104604 54 126 1.0 6.0 0.00 0.42 0.03 93 1009.3
20260903104053 54 156 2.0 6.0 0.00 0.42 0.03 94 1009.3
20260903103553 54 171 1.0 7.0 0.00 0.42 0.03 94 1009.3
20260903103102 54 0 2.0 9.0 0.00 0.42 0.03 94 1009.2
20260903102554 54 156 2.0 9.0 0.00 0.42 0.03 94 1009.3
20260903102055 54 167 1.0 6.0 0.00 0.42 0.03 94 1009.3
20260903101604 54 137 1.0 6.0 0.00 0.42 0.03 94 1009.2
20260903101055 54 0 2.0 6.0 0.00 0.42 0.03 94 1009.2
20260903100554 54 194 0.0 5.0 0.00 0.42 0.03 94 1009.2
20260903095555 54 158 1.0 6.0 0.00 0.42 0.03 94 1009.1
20260903095053 54 147 2.0 6.0 0.00 0.42 0.03 94 1009.1
20260903094652 54 200 1.0 5.0 0.00 0.42 0.03 94 1009.1
20260903094055 54 191 2.0 6.0 0.00 0.42 0.03 94 1009.1
20260903093555 55 146 1.0 7.0 0.00 0.42 0.03 94 1009.1
20260903093104 55 138 2.0 7.0 0.00 0.42 0.03 94 1009.1
20260903092556 55 0 2.0 7.0 0.01 0.42 0.03 94 1009.1
20260903092058 55 185 0.0 5.0 0.01 0.42 0.03 94 1009.2
20260903091605 55 165 2.0 5.0 0.01 0.42 0.03 94 1009.2
20260903091057 55 182 0.0 5.0 0.01 0.42 0.03 94 1009.3
20260903090554 55 188 2.0 5.0 0.01 0.42 0.03 94 1009.4
20260903090104 55 194 1.0 3.0 0.02 0.42 0.03 94 1009.3
20260903085553 55 0 1.0 3.0 0.02 0.42 0.03 94 1009.3
20260903085053 55 175 1.0 5.0 0.02 0.42 0.03 94 1009.4
20260903084603 55 0 1.0 5.0 0.02 0.42 0.03 94 1009.4
20260903084053 55 185 1.0 5.0 0.02 0.42 0.03 94 1009.4
20260903083556 55 200 1.0 6.0 0.02 0.42 0.03 94 1009.3
20260903083103 55 214 1.0 6.0 0.02 0.42 0.03 94 1009.4
20260903082554 55 184 2.0 5.0 0.02 0.41 0.02 94 1009.5
20260903082054 55 161 1.0 7.0 0.02 0.41 0.02 94 1009.5
20260903081603 55 229 1.0 7.0 0.02 0.41 0.02 94 1009.4
20260903081054 55 187 2.0 5.0 0.02 0.41 0.02 94 1009.5
20260903080554 55 138 1.0 5.0 0.02 0.41 0.02 94 1009.4
20260903080103 55 148 0.0 6.0 0.01 0.40 0.01 94 1009.4
20260903075554 55 208 1.0 6.0 0.01 0.40 0.01 94 1009.5
20260903075054 55 173 3.0 6.0 0.02 0.40 0.01 94 1009.5
20260903074605 55 0 2.0 9.0 0.02 0.40 0.01 94 1009.5
20260903074058 55 155 1.0 9.0 0.02 0.40 0.01 94 1009.4
20260903073555 55 195 2.0 7.0 0.02 0.40 0.01 94 1009.5
20260903073100 55 176 2.0 7.0 0.02 0.40 0.01 94 1009.5
20260903072554 55 202 2.0 8.0 0.01 0.39 0.00 94 1009.5
20260903072056 55 193 3.0 8.0 0.01 0.39 0.00 94 1009.4
20260903071557 55 165 3.0 7.0 0.01 0.39 0.00 94 1009.3
20260903071055 55 164 3.0 8.0 0.01 0.39 0.00 93 1009.3
20260903070556 55 190 3.0 9.0 0.01 0.39 0.00 93 1009.4
20260903070103 55 194 3.0 9.0 0.01 0.39 0.00 93 1009.3
20260903065559 55 188 2.0 9.0 0.01 0.39 0.39 93 1009.4
20260903065054 55 145 3.0 9.0 0.00 0.38 0.38 93 1009.4
20260903064608 55 132 2.0 9.0 0.00 0.38 0.38 93 1009.4
20260903064055 55 0 3.0 13.0 0.00 0.38 0.38 93 1009.4
20260903063554 55 22 4.0 13.0 0.00 0.38 0.38 93 1009.5
20260903063102 55 202 4.0 12.0 0.00 0.38 0.38 92 1009.4
20260903062554 55 193 3.0 12.0 0.00 0.38 0.38 92 1009.3
20260903062055 55 167 3.0 13.0 0.00 0.38 0.38 92 1009.3
20260903061557 55 175 5.0 13.0 0.00 0.38 0.38 93 1009.5
20260903061054 55 0 3.0 10.0 0.00 0.38 0.38 93 1009.4
20260903060554 55 131 2.0 5.0 0.00 0.38 0.38 93 1009.5
20260903060108 55 167 1.0 4.0 0.00 0.38 0.38 93 1009.4
20260903055554 55 193 1.0 4.0 0.00 0.38 0.38 93 1009.3
20260903055055 55 141 1.0 4.0 0.00 0.38 0.38 93 1009.4
20260903054618 55 0 1.0 5.0 0.00 0.38 0.38 93 1009.4
20260903054057 55 155 1.0 5.0 0.00 0.38 0.38 92 1009.4
20260903053554 56 172 0.0 4.0 0.00 0.38 0.38 92 1009.5
20260903053107 56 0 1.0 4.0 0.00 0.38 0.38 92 1009.6
20260903052555 56 194 0.0 4.0 0.00 0.38 0.38 92 1009.6
20260903052057 56 211 0.0 8.0 0.00 0.38 0.38 92 1009.6
20260903051605 56 148 2.0 8.0 0.00 0.38 0.38 92 1009.5
20260903051055 56 0 2.0 9.0 0.00 0.38 0.38 92 1009.4
20260903050554 56 173 1.0 9.0 0.00 0.38 0.38 92 1009.3
20260903050104 56 164 1.0 7.0 0.00 0.38 0.38 92 1009.4
20260903045555 56 179 2.0 7.0 0.00 0.38 0.38 93 1009.4
20260903045055 56 193 3.0 7.0 0.00 0.38 0.38 93 1009.4
20260903044602 56 185 2.0 7.0 0.00 0.38 0.38 93 1009.3
20260903044054 56 190 2.0 6.0 0.00 0.38 0.38 93 1009.3
20260903043553 56 183 1.0 6.0 0.00 0.38 0.38 93 1009.3
20260903043103 56 207 1.0 5.0 0.00 0.38 0.38 93 1009.2
20260903042558 56 172 0.0 6.0 0.00 0.38 0.38 93 1009.1
20260903042053 56 0 2.0 7.0 0.00 0.38 0.38 93 1009.1
20260903041613 57 186 1.0 7.0 0.00 0.38 0.38 93 1009.1
20260903041054 57 172 3.0 7.0 0.00 0.38 0.38 93 1009.0
20260903040554 57 0 0.0 5.0 0.00 0.38 0.38 93 1009.1
20260903040125 57 0 3.0 7.0 0.00 0.38 0.38 93 1008.9
20260903035556 57 201 1.0 7.0 0.00 0.38 0.38 93 1008.9
20260903035056 57 169 2.0 6.0 0.01 0.38 0.38 93 1008.9
20260903034605 57 162 2.0 5.0 0.01 0.38 0.38 93 1008.8
20260903034055 57 197 1.0 5.0 0.01 0.38 0.38 93 1008.7
20260903033553 57 162 1.0 5.0 0.01 0.38 0.38 93 1008.5
20260903033100 57 137 1.0 5.0 0.01 0.38 0.38 93 1008.4
20260903032554 57 0 1.0 7.0 0.01 0.38 0.38 93 1008.3
20260903032057 57 178 2.0 9.0 0.01 0.38 0.38 93 1008.2
20260903031602 58 152 2.0 9.0 0.01 0.38 0.38 93 1008.2
20260903031057 58 175 3.0 8.0 0.01 0.38 0.38 93 1008.1
20260903030554 58 194 1.0 8.0 0.01 0.38 0.38 93 1008.1
20260903025554 58 170 2.0 6.0 0.01 0.38 0.38 93 1008.2
20260903025057 58 172 1.0 6.0 0.00 0.37 0.37 93 1008.0
20260903024558 58 192 2.0 10.0 0.00 0.37 0.37 93 1008.0
20260903024054 58 150 2.0 10.0 0.00 0.37 0.37 93 1007.9
20260903023555 58 186 3.0 7.0 0.00 0.37 0.37 93 1007.8
20260903023104 58 138 2.0 7.0 0.00 0.37 0.37 93 1007.8
20260903022557 58 192 0.0 7.0 0.00 0.37 0.37 93 1007.7
20260903022053 58 165 2.0 10.0 0.00 0.37 0.37 93 1007.8
20260903021602 59 189 2.0 11.0 0.00 0.37 0.37 93 1007.9
20260903021055 59 255 5.0 11.0 0.00 0.37 0.37 93 1007.7
20260903020555 59 200 2.0 9.0 0.00 0.37 0.37 93 1007.6
20260903020057 59 198 1.0 9.0 0.00 0.37 0.37 93 1007.6
20260903015555 59 168 2.0 8.0 0.00 0.37 0.37 93 1007.6
20260903015054 59 207 2.0 8.0 0.00 0.37 0.37 93 1007.6
20260903014557 59 113 1.0 5.0 0.00 0.37 0.37 93 1007.4
20260903014056 59 122 2.0 7.0 0.00 0.37 0.37 93 1007.3
20260903013554 59 193 2.0 7.0 0.00 0.37 0.37 93 1007.4
20260903013059 59 163 2.0 7.0 0.00 0.37 0.37 93 1007.4
20260903012553 59 192 1.0 5.0 0.00 0.37 0.37 93 1007.5
20260903012057 59 0 0.0 4.0 0.00 0.37 0.37 93 1007.4
20260903011558 59 125 0.0 4.0 0.00 0.37 0.37 93 1007.4
20260903011058 59 0 0.0 4.0 0.00 0.37 0.37 93 1007.3
20260903010554 59 0 0.0 4.0 0.00 0.37 0.37 92 1007.3
20260903010058 59 0 1.0 5.0 0.00 0.37 0.37 92 1007.3
20260903005555 59 133 0.0 6.0 0.00 0.37 0.37 93 1007.3
20260903005057 59 0 0.0 6.0 0.00 0.37 0.37 93 1007.2
20260903004601 59 200 1.0 6.0 0.00 0.37 0.37 92 1007.3
20260903004055 59 162 0.0 6.0 0.01 0.37 0.37 92 1007.2
20260903003555 59 132 3.0 6.0 0.01 0.37 0.37 92 1007.2
20260903003101 59 178 1.0 4.0 0.01 0.37 0.37 93 1007.0
20260903002555 59 105 1.0 6.0 0.01 0.37 0.37 92 1007.0
20260903002055 58 135 1.0 8.0 0.01 0.37 0.37 93 1006.9
20260903001608 58 172 2.0 8.0 0.01 0.37 0.37 93 1007.0
20260903001054 58 147 2.0 9.0 0.01 0.37 0.37 92 1006.9
20260903000554 58 177 2.0 9.0 0.01 0.37 0.37 92 1006.9
20260903000104 58 127 2.0 10.0 0.02 0.37 0.37 92 1006.9
20260902235553 58 205 1.0 10.0 0.02 0.37 0.37 92 1006.9
20260902235054 58 175 3.0 8.0 0.02 0.37 0.37 92 1006.9
20260902234558 58 256 1.0 8.0 0.02 0.37 0.37 92 1006.9
20260902234058 58 275 2.0 10.0 0.01 0.36 0.36 92 1006.9
20260902233554 59 172 2.0 10.0 0.01 0.36 0.36 91 1006.9
20260902233108 59 245 2.0 10.0 0.01 0.36 0.36 91 1006.7
20260902232554 59 178 3.0 10.0 0.01 0.36 0.36 91 1006.5
20260902232052 59 202 3.0 10.0 0.01 0.36 0.36 91 1006.7
20260902231602 59 267 2.0 16.0 0.01 0.36 0.36 91 1006.7
20260902231055 59 142 4.0 16.0 0.01 0.36 0.36 91 1006.6
20260902230558 59 192 2.0 15.0 0.01 0.36 0.36 90 1006.5
20260902230121 59 178 4.0 10.0 0.00 0.35 0.35 90 1006.6
20260902225554 59 19 2.0 18.0 0.00 0.35 0.35 90 1006.5
20260902225055 59 260 2.0 18.0 0.00 0.35 0.35 89 1006.4
20260902224601 60 218 4.0 15.0 0.00 0.35 0.35 89 1006.4
20260902224054 60 173 3.0 16.0 0.00 0.35 0.35 89 1006.3
20260902223554 60 157 5.0 17.0 0.00 0.35 0.35 89 1006.3
20260902223101 59 228 8.0 17.0 0.00 0.35 0.35 89 1006.2
20260902222554 59 171 4.0 16.0 0.00 0.35 0.35 90 1006.3
20260902222054 59 209 4.0 11.0 0.00 0.35 0.35 90 1006.2
20260902221606 59 194 4.0 15.0 0.00 0.35 0.35 91 1006.2
20260902221054 59 0 5.0 15.0 0.00 0.35 0.35 91 1006.2
20260902220555 59 186 3.0 12.0 0.00 0.35 0.35 91 1006.3
20260902220107 59 194 5.0 12.0 0.00 0.35 0.35 92 1006.2
20260902215554 59 242 3.0 10.0 0.00 0.35 0.35 92 1006.2
20260902215056 59 213 2.0 7.0 0.00 0.35 0.35 93 1006.3
20260902214625 59 155 3.0 7.0 0.00 0.35 0.35 93 1006.2
20260902214055 59 0 1.0 5.0 0.00 0.35 0.35 93 1006.1
20260902213555 59 0 1.0 8.0 0.00 0.35 0.35 93 1006.1
20260902213100 59 192 1.0 8.0 0.00 0.35 0.35 93 1006.2
20260902212554 59 144 2.0 6.0 0.01 0.35 0.35 93 1006.1
20260902212054 59 186 1.0 6.0 0.01 0.35 0.35 93 1006.2
20260902211558 59 208 2.0 6.0 0.02 0.35 0.35 93 1006.2
20260902211057 59 150 1.0 6.0 0.03 0.35 0.35 93 1006.1
20260902210555 59 155 1.0 5.0 0.04 0.35 0.35 93 1006.1
20260902210130 59 0 2.0 5.0 0.05 0.35 0.35 93 1006.2
20260902205554 59 212 2.0 5.0 0.05 0.35 0.35 93 1006.2
20260902205056 59 178 1.0 8.0 0.07 0.35 0.35 93 1006.2
20260902204602 58 0 1.0 8.0 0.08 0.35 0.35 93 1006.1
20260902204055 58 115 4.0 8.0 0.09 0.35 0.35 93 1006.0
20260902203554 58 130 3.0 7.0 0.11 0.35 0.35 93 1006.0
20260902203105 58 112 3.0 9.0 0.12 0.35 0.35 93 1005.8
20260902202554 58 153 3.0 9.0 0.15 0.34 0.34 93 1005.8
20260902202054 58 179 3.0 8.0 0.17 0.34 0.34 93 1005.8
20260902201610 58 100 3.0 8.0 0.17 0.33 0.33 92 1005.8
20260902201057 58 140 2.0 8.0 0.17 0.32 0.32 92 1005.8
20260902200554 59 0 3.0 8.0 0.17 0.31 0.31 92 1006.0
20260902200111 59 119 4.0 7.0 0.17 0.30 0.30 92 1005.9
20260902195555 59 136 3.0 7.0 0.17 0.30 0.30 92 1005.9
20260902195054 59 82 1.0 5.0 0.16 0.28 0.28 92 1006.0
20260902194604 59 119 1.0 5.0 0.16 0.27 0.27 91 1006.1
20260902194057 58 127 2.0 5.0 0.14 0.25 0.25 91 1006.2
20260902193556 59 112 2.0 5.0 0.13 0.24 0.24 90 1006.2